Location: Carabito
(9.8355°N, 67.9249°W)
Time: 23:30:33
(UTC+00:00)

CSL-04 DEB - Pass Details

Date: 23 May 2024
Orbit: 515 x 588 km, 98.7° (Epoch: 15 June)

Event Time Altitude Azimuth Distance (km) Brightness Sun altitude
Rises 08:25:45 0° 10° (N) 2,672 8.4 -24.2°
Reaches altitude 10° 08:27:53 10° 9° (N) 1,771 7.4 -23.7°
Enters shadow 08:31:14 67° 348° (NNW) 570 4.3 -23.0°
